TimeCDT,TemperatureF,Dew PointF,Humidity,Sea Level PressureIn,VisibilityMPH,Wind Direction,Wind SpeedMPH,Gust SpeedMPH,PrecipitationIn,Events,Conditions,WindDirDegrees,DateUTC
12:03 AM,55.4,53.6,94,30.03,0.2,Calm,Calm,-,N/A,Fog,Fog,0,2013-05-05 05:03:00
12:13 AM,53.6,53.6,100,30.03,0.2,Calm,Calm,-,N/A,Fog,Fog,0,2013-05-05 05:13:00
12:39 AM,53.6,53.6,100,30.04,0.5,Calm,Calm,-,N/A,Fog,Fog,0,2013-05-05 05:39:00
12:45 AM,53.6,53.6,100,30.04,1.0,ESE,3.5,-,N/A,,Mostly Cloudy,120,2013-05-05 05:45:00
12:52 AM,54.0,53.1,97,30.04,1.2,ESE,4.6,-,N/A,,Scattered Clouds,120,2013-05-05 05:52:00
1:01 AM,53.6,53.6,100,30.04,0.5,SSE,3.5,-,N/A,Fog,Fog,150,2013-05-05 06:01:00
1:10 AM,53.6,53.6,100,30.04,1.5,SSE,3.5,-,N/A,,Mostly Cloudy,160,2013-05-05 06:10:00
1:15 AM,53.6,53.6,100,30.04,3.0,SSE,3.5,-,N/A,,Mostly Cloudy,160,2013-05-05 06:15:00
1:23 AM,53.6,53.6,100,30.04,2.5,South,3.5,-,N/A,,Overcast,180,2013-05-05 06:23:00
1:29 AM,53.6,53.6,100,30.03,0.8,SSW,4.6,-,N/A,,Mostly Cloudy,200,2013-05-05 06:29:00
1:47 AM,53.6,53.6,100,30.03,1.0,SW,4.6,-,N/A,,Overcast,220,2013-05-05 06:47:00
1:52 AM,53.1,53.1,100,30.03,1.0,SSW,4.6,-,N/A,,Overcast,210,2013-05-05 06:52:00
2:05 AM,53.6,53.6,100,30.02,2.5,WSW,6.9,-,N/A,,Overcast,240,2013-05-05 07:05:00
2:13 AM,53.6,53.6,100,30.02,3.0,WSW,5.8,-,N/A,,Overcast,250,2013-05-05 07:13:00
2:35 AM,51.8,51.8,100,30.03,7.0,West,4.6,-,N/A,,Mostly Cloudy,270,2013-05-05 07:35:00
2:52 AM,51.1,50.0,96,30.03,7.0,West,4.6,-,N/A,,Mostly Cloudy,280,2013-05-05 07:52:00
3:52 AM,50.0,48.9,96,30.03,2.5,NNW,5.8,-,N/A,,Clear,330,2013-05-05 08:52:00
3:57 AM,48.2,48.2,100,30.03,0.8,NNW,5.8,-,N/A,,Mist,340,2013-05-05 08:57:00
4:07 AM,48.2,48.2,100,30.02,0.2,NNW,5.8,-,N/A,Fog,Fog,340,2013-05-05 09:07:00
4:30 AM,50.0,48.2,94,30.02,1.0,NNW,3.5,-,N/A,,Mist,340,2013-05-05 09:30:00
4:40 AM,50.0,48.2,94,30.02,0.8,NNW,3.5,-,N/A,,Clear,330,2013-05-05 09:40:00
4:52 AM,50.0,48.9,96,30.03,0.5,NNW,4.6,-,N/A,Fog,Fog,330,2013-05-05 09:52:00
4:55 AM,50.0,50.0,100,30.02,3.0,NNW,4.6,-,N/A,,Clear,330,2013-05-05 09:55:00
5:11 AM,48.2,46.4,93,30.02,0.2,NNW,4.6,-,N/A,Fog,Fog,340,2013-05-05 10:11:00
5:52 AM,50.0,48.9,96,30.03,0.2,NNW,6.9,-,N/A,Fog,Fog,340,2013-05-05 10:52:00
6:52 AM,51.1,51.1,100,30.04,0.2,North,5.8,-,0.01,Fog,Fog,360,2013-05-05 11:52:00
7:23 AM,53.6,51.8,94,30.04,0.2,North,4.6,-,N/A,Fog,Fog,360,2013-05-05 12:23:00
7:52 AM,53.1,53.1,100,30.04,0.2,North,5.8,-,N/A,Fog,Fog,10,2013-05-05 12:52:00
8:12 AM,53.6,53.6,100,30.04,0.2,North,6.9,-,N/A,Fog,Fog,10,2013-05-05 13:12:00
8:27 AM,53.6,53.6,100,30.05,0.8,North,6.9,-,N/A,,Overcast,350,2013-05-05 13:27:00
8:33 AM,55.4,55.4,100,30.05,1.2,NNW,6.9,-,N/A,,Overcast,330,2013-05-05 13:33:00
8:52 AM,55.0,55.0,100,30.05,1.8,NNW,6.9,-,N/A,,Overcast,330,2013-05-05 13:52:00
9:01 AM,55.4,55.4,100,30.05,2.5,NNW,8.1,-,N/A,,Overcast,330,2013-05-05 14:01:00
9:11 AM,55.4,55.4,100,30.05,4.0,North,8.1,-,N/A,,Scattered Clouds,350,2013-05-05 14:11:00
9:52 AM,59.0,57.0,93,30.05,5.0,NW,11.5,-,N/A,,Scattered Clouds,320,2013-05-05 14:52:00
10:11 AM,59.0,57.2,94,30.04,5.0,NNW,12.7,-,N/A,,Mostly Cloudy,330,2013-05-05 15:11:00
10:42 AM,60.8,57.2,88,30.04,5.0,NW,10.4,-,N/A,,Scattered Clouds,320,2013-05-05 15:42:00
10:52 AM,61.0,57.0,87,30.04,5.0,NW,11.5,-,N/A,,Scattered Clouds,320,2013-05-05 15:52:00
11:52 AM,66.0,57.0,73,30.04,10.0,North,6.9,-,N/A,,Clear,360,2013-05-05 16:52:00
12:52 PM,68.0,54.0,61,30.02,10.0,North,8.1,-,N/A,,Scattered Clouds,360,2013-05-05 17:52:00
1:52 PM,68.0,52.0,56,30.00,10.0,NNW,5.8,-,N/A,,Overcast,330,2013-05-05 18:52:00
2:52 PM,70.0,51.1,51,29.99,10.0,Calm,Calm,-,N/A,,Mostly Cloudy,0,2013-05-05 19:52:00
3:52 PM,70.0,48.0,46,29.97,10.0,NNE,8.1,-,N/A,,Partly Cloudy,30,2013-05-05 20:52:00
4:52 PM,72.0,46.0,40,29.97,10.0,Calm,Calm,-,N/A,,Scattered Clouds,0,2013-05-05 21:52:00
5:52 PM,70.0,50.0,49,29.97,10.0,NNE,3.5,-,N/A,,Clear,30,2013-05-05 22:52:00
6:52 PM,70.0,50.0,49,29.97,10.0,North,4.6,-,N/A,,Scattered Clouds,10,2013-05-05 23:52:00
7:52 PM,66.0,50.0,56,29.98,10.0,North,6.9,-,N/A,,Clear,360,2013-05-06 00:52:00
8:52 PM,64.9,46.9,52,29.99,10.0,NNE,3.5,-,N/A,,Scattered Clouds,30,2013-05-06 01:52:00
9:52 PM,64.0,46.0,52,30.00,10.0,NNE,4.6,-,N/A,,Clear,20,2013-05-06 02:52:00
10:52 PM,57.0,54.0,89,30.01,10.0,NNW,5.8,-,N/A,,Partly Cloudy,340,2013-05-06 03:52:00
11:52 PM,55.9,52.0,87,30.01,10.0,NNW,6.9,-,N/A,,Partly Cloudy,330,2013-05-06 04:52:00